CZ-2D DEB, 44610

Orbit data source: Space-Track

CZ-2D DEB, 44610 is space debris in SSO originally from a launch on Mon, 09 Oct 2017 UTC launched from the Jiuquan Satellite Launch Center, China (JSC). Debris objects in space refer to the collection of defunct objects orbiting the Earth. Examples of debris include non-operational satellites, rocket bodies, and fragments generated from explosions, collisions, or faulty payload assembly.

Loading next visibility...
Identifier
44610, 2017-060C
Orbit
SSO
Country
Flag of CNCN / PRC
Related business
Manufacturer
Unknown
Mission
Spacecraft
Bus & Motor
Unknown
Mass
Unknown
Launch date (UTC)
2017-10-09 (8 years ago)
Launch vehicle
Unknown
Launch site
Jiuquan Satellite Launch Center, China (JSC)
Object type
Payload
Rocket body
Debris
Shape & HBR
Unknown shape, 0.1 m
Radar Cross Section
Small (<0.1 m²)

Expand to show TLE details & history
Last TLE update: 14 hours ago

TLE from 14 hours ago
0 CZ-2D DEB
1 44610U 17060C   25298.47120131  .00012891  00000-0  91624-3 0  9990
2 44610  98.2470 123.4753 0018763 161.5731 198.6176 15.04692441433892
Epoch: 2025-10-25T11:18Z
TLE epoch observation values (Epoch: 2025-10-25T11:18:31.793Z)
Latitude
-0.0001°
Longitude
-80.25843°
Altitude
567.823 km
Speed
7.57 km/s
True Right ascension
08h 13m 54s
True Declination
0° 00' 00"
Sunlit
Object was in daylight at epoch
Visualization orbit readout
Latitude
Unknown
Longitude
Unknown
Altitude
Unknown
Speed
Unknown
Apparent Right ascension
Unknown
Apparent Declination
Unknown
Sunlit
N/A
Visualization observer readout
Local Sidereal Time
20:54:08
Azimuth
Unknown
Elevation
Unknown
Doppler factor
Unknown
Orbital elements
Apogee altitude
562.472 km
Perigee altitude
536.476 km
Semi-major axis
6,927.611 km
Eccentricity
0.00188
Inclination
98.247°
RAAN
123.4753°
Arg. of periapsis
161.5731°
True anomaly
198.54911°
Mean anomaly
198.6176°
Eccentric anomaly
198.58334°
Mean motion
3.76416 °/min
Orbital period
95.64 mins
BSTAR
0.00091624
Loading maneuver chart data...
Computing Atmospheric mass density...
Loading historical data...
Loading historical data...
Loading historical data...
Loading historical data...
Loading historical data...
Loading historical data...
Loading historical data...
Other satellites on launch #60 in the year 2017 (2017-10-09 UTC)

Documentation

Showing up to 5 results
|